Terminal Aerodrome Forecast
Issued by NWS

Home | Current Version | Previous Version | Text Only | Print | Product List | Glossary Off
Versions: 1 2 3 4 5 6 7 8 9 10 11 12 13

000
FTUS42 KMHX 202300
TAFOAJ
TAF
KOAJ 202337Z 2100/2124 00000KT P6SM SCT070
     FM210300 18003KT P6SM SCT025 BKN040
     FM211400 26005KT P6SM SCT050
      AMD LTD TO CLD VIS AND WIND=

USA.gov is the U.S. government's official web portal to all federal, state and local government web resources and services.